#timestamp,LO_Frequency,Hit,StdDev 
1586757615.3,286046987.3,N
1586757635.1,286046985.7,N
1586757655.8,286046985.2,N
1586757675.7,286046985.5,N
1586757695.5,286046982.7,N
1586757715.4,286046979.3,N
1586757735.2,286046983.7,N
1586757755.0,286046983.0,N
1586757755.9,286046983.0,N
1586757775.8,286046982.0,N
1586757795.6,286046978.3,N
1586757815.5,286046967.9,Y
1586757835.3,286046976.0,P
1586757855.1,286046972.8,P
1586757875.9,286046972.4,P
1586757895.7,286046961.2,Y
1586757915.5,286046969.4,P
1586757935.4,286046966.0,P
1586757955.2,286046962.2,P
1586757975.1,286046953.1,Y
1586757976.0,286046953.1,P
1586757995.8,286046976.1,P
1586758015.6,286046970.9,P
1586758035.5,286046968.2,Y
1586758055.3,286047000.3,P
1586758075.2,286047000.2,N
1586758095.9,286047002.3,N
1586758115.7,286047001.7,N
1586758135.6,286047006.8,N
1586758155.4,286047007.7,N
1586758175.2,286047012.1,N
1586758195.1,286047015.3,N
1586758196.0,286047015.3,N
1586758215.8,286047009.3,N
1586758235.7,286047006.7,N
1586758255.5,286047010.4,N
1586758275.3,286047015.2,N
1586758295.2,286047018.7,N
1586758315.0,286047021.6,N
1586758315.9,286047021.6,N
1586758335.7,286047022.3,N
1586758355.6,286047026.1,N
1586758375.4,286047022.5,N
1586758395.3,286047026.0,N
1586758415.1,286047028.7,N
1586758416.0,286047028.7,N
1586758435.8,286047027.0,N
1586758455.7,286047031.4,N
1586758475.5,286047032.9,N
1586758495.3,286047027.5,N
1586758515.2,286047022.1,N
1586758535.0,286047023.0,N
1586758535.9,286047023.0,N
1586758555.8,286047013.0,N
1586758575.6,286047009.5,N
1586758595.4,286047008.4,N
1586758615.3,286047010.8,N
1586758635.1,286047009.6,N
1586758655.8,286047014.0,N
1586758675.7,286047018.3,N
1586758695.5,286047016.1,N
1586758715.4,286047015.3,N
1586758735.2,286047013.5,N
1586758755.0,286047007.7,N
1586758755.9,286047007.7,N
1586758775.8,286047013.3,N
1586758795.6,286047018.0,N
1586758815.4,286047018.1,N
1586758835.3,286047017.2,N
1586758855.1,286047008.4,N
1586758875.9,286046992.7,N
1586758895.7,286046980.7,N
1586758915.5,286046979.7,N
1586758935.4,286046987.9,N
1586758955.2,286046996.4,N
1586758975.0,286047001.6,N
1586758976.0,286047001.6,N
1586758995.8,286047014.0,N
1586759015.6,286047022.2,N
1586759035.5,286047029.0,N
1586759055.3,286047037.9,Y
1586759075.1,286047030.4,P
1586759095.9,286047032.4,P
1586759115.7,286047032.6,P
1586759135.6,286047028.7,N
1586759155.4,286047028.5,Y
1586759175.2,286047003.4,P
1586759195.1,286047006.0,N
1586759196.0,286047006.0,N
1586759215.8,286047003.3,N
1586759235.6,286047004.1,N
1586759255.5,286047004.0,N
1586759275.3,286047001.9,N
1586759295.2,286047000.5,N
1586759315.9,286047004.3,N
1586759335.7,286047005.7,N
1586759355.6,286047010.3,N
1586759375.4,286047011.2,N
1586759395.2,286047016.2,N
1586759415.1,286047020.2,Y
1586759416.0,286047020.2,P
1586759435.8,286047013.8,N
1586759455.7,286047013.2,N
1586759475.5,286047013.9,Y
1586759495.3,286046997.1,P
1586759515.2,286046996.3,N
1586759535.0,286046992.2,N
1586759535.9,286046992.2,N
1586759555.8,286046989.1,N
1586759575.6,286046985.9,N
1586759595.4,286046980.9,N
1586759615.3,286046978.4,N
1586759635.1,286046975.5,N
1586759655.8,286046979.9,N
1586759675.7,286046984.3,N
1586759695.5,286046989.5,N
1586759715.4,286046996.3,N
1586759735.2,286047001.1,N
1586759755.0,286047001.4,N
1586759755.9,286047001.4,N
1586759775.8,286047006.9,N
1586759795.6,286047012.4,N
1586759815.4,286047013.4,N
1586759835.3,286047011.8,N
1586759855.1,286047009.6,N
1586759875.9,286047009.1,N
1586759895.7,286047006.7,N
1586759915.5,286047006.6,N
1586759935.4,286047011.0,N
1586759955.2,286047013.9,N
1586759975.0,286047006.9,N
1586759975.9,286047006.9,N
1586759995.8,286046999.9,N
1586760015.6,286047005.2,N
1586760035.5,286047007.3,N
1586760055.3,286047003.6,N
1586760075.1,286047000.9,N
1586760095.9,286046993.4,N
1586760115.7,286046994.1,N
1586760135.6,286046992.1,N
1586760155.4,286046995.5,N
1586760175.2,286046996.4,N
1586760195.1,286046992.2,N
1586760196.0,286046992.2,N
1586760215.8,286046999.1,N
1586760235.7,286046996.7,N
1586760255.5,286046995.3,N
1586760275.3,286046995.0,N
1586760295.2,286046998.2,N
1586760315.9,286046998.8,N
1586760335.7,286046998.5,N
1586760355.6,286046996.5,N
1586760375.4,286046999.4,N
1586760395.3,286047000.7,N
1586760415.1,286046999.9,N
1586760416.0,286046999.9,N
1586760435.8,286046999.8,N
1586760455.7,286047002.0,N
1586760475.5,286047000.3,N
1586760495.3,286046998.9,N
1586760515.2,286046997.3,N
1586760535.0,286047000.7,N
1586760535.9,286047000.7,N
1586760555.8,286047001.1,N
1586760575.6,286046996.4,N
1586760595.4,286046987.3,Y
1586760615.3,286046994.2,P
1586760635.1,286046995.0,N
1586760655.8,286046999.6,N
1586760675.7,286046993.3,Y
1586760695.5,286046998.0,P
1586760715.4,286046996.1,P
1586760735.2,286046997.1,P
1586760755.0,286046996.3,Y
1586760755.9,286046996.3,P
1586760775.8,286046992.5,P
1586760795.6,286046986.8,P
1586760815.5,286046980.2,Y
1586760835.3,286046981.7,P
1586760855.1,286046972.0,P
1586760875.9,286046962.3,P
1586760895.7,286046954.0,Y
1586760915.5,286046966.7,P
1586760935.4,286046955.1,P
1586760955.2,286046952.6,P
1586760975.1,286046960.3,Y
1586760976.0,286046960.3,P
1586760995.8,286046999.2,N
1586761015.6,286046999.6,N
1586761035.5,286047005.5,N
1586761055.3,286047001.0,N
1586761075.2,286046990.0,N
1586761095.9,286046979.7,N
1586761115.7,286046976.9,N
1586761135.6,286046967.9,N
1586761155.4,286046965.2,N
1586761175.2,286046958.4,N
1586761195.1,286046953.5,N
1586761196.0,286046953.5,N
